SWA766 KBNA-KRDU

Flight info

Callsign SWA766
Flight time N/A
Altitude 37000
Route TAZMO4 BURME VXV KPASS ALDAN4
Aircraft B738/M-SDE2E3FGHIRWXY/LB1

Departure

Time N/A
Airport Nashville International Airport (KBNA)

Arrival

Time 2026-05-05 22:50
Airport Raleigh-Durham International Airport (KRDU)
Time Latitude Longitude Altitude Speed Heading
2026-05-05 22:07 36.67571 -81.72361 36962 ft 508 kts 65°
2026-05-05 22:07 36.67601 -81.72229 37026 ft 508 kts 65°
2026-05-05 22:08 36.68710 -81.67275 36997 ft 509 kts 66°
2026-05-05 22:08 36.70310 -81.60193 36970 ft 510 kts 65°
2026-05-05 22:09 36.72582 -81.50310 36980 ft 509 kts 65°
2026-05-05 22:09 36.73884 -81.44684 36998 ft 508 kts 65°
2026-05-05 22:10 36.76366 -81.33928 37005 ft 507 kts 65°
2026-05-05 22:10 36.78014 -81.26752 37018 ft 507 kts 66°
2026-05-05 22:11 36.79950 -81.18292 37005 ft 507 kts 66°
2026-05-05 22:11 36.81878 -81.09830 36999 ft 506 kts 66°
2026-05-05 22:12 36.83797 -81.01380 37003 ft 506 kts 66°
2026-05-05 22:12 36.85709 -80.92927 37014 ft 505 kts 66°
2026-05-05 22:13 36.87601 -80.84531 37017 ft 505 kts 66°
2026-05-05 22:13 36.89504 -80.76069 36570 ft 510 kts 67°
2026-05-05 22:13 36.90460 -80.71806 36011 ft 509 kts 67°
2026-05-05 22:14 36.91415 -80.67533 35419 ft 509 kts 68°
2026-05-05 22:14 36.92365 -80.63268 34779 ft 510 kts 68°
2026-05-05 22:14 36.93314 -80.59001 34147 ft 511 kts 68°
2026-05-05 22:14 36.94269 -80.54712 33398 ft 513 kts 69°
2026-05-05 22:15 36.95227 -80.50402 32688 ft 513 kts 69°
2026-05-05 22:15 36.96159 -80.46154 32073 ft 512 kts 70°
2026-05-05 22:15 36.97073 -80.41870 31635 ft 507 kts 70°
2026-05-05 22:15 36.97970 -80.37618 31144 ft 503 kts 70°
2026-05-05 22:16 36.98859 -80.33390 30667 ft 499 kts 70°
2026-05-05 22:16 36.99740 -80.29210 30193 ft 496 kts 70°
2026-05-05 22:16 37.00617 -80.25057 29672 ft 492 kts 70°
2026-05-05 22:16 37.01293 -80.20868 29176 ft 489 kts 83°
2026-05-05 22:17 37.01127 -80.16647 28586 ft 484 kts 99°
2026-05-05 22:17 37.00219 -80.12623 27886 ft 478 kts 113°
2026-05-05 22:17 36.98674 -80.08965 27243 ft 476 kts 126°
2026-05-05 22:17 36.96898 -80.05573 26909 ft 468 kts 125°
2026-05-05 22:18 36.95137 -80.02166 26545 ft 463 kts 125°
2026-05-05 22:18 36.93422 -79.98805 26028 ft 454 kts 124°
2026-05-05 22:18 36.91744 -79.95486 25335 ft 450 kts 124°
2026-05-05 22:18 36.90086 -79.92189 24678 ft 445 kts 124°
2026-05-05 22:19 36.88450 -79.88930 24092 ft 438 kts 125°
2026-05-05 22:19 36.86845 -79.85729 23522 ft 431 kts 125°
2026-05-05 22:19 36.85263 -79.82579 22841 ft 425 kts 125°
2026-05-05 22:19 36.83719 -79.79510 22169 ft 419 kts 125°
2026-05-05 22:20 36.82180 -79.76453 21494 ft 413 kts 125°
2026-05-05 22:20 36.80656 -79.73432 20904 ft 410 kts 125°
2026-05-05 22:20 36.79129 -79.70411 20419 ft 409 kts 125°
2026-05-05 22:20 36.77610 -79.67407 19975 ft 406 kts 125°
2026-05-05 22:21 36.76126 -79.64473 19537 ft 404 kts 125°
2026-05-05 22:21 36.74627 -79.61512 19112 ft 401 kts 125°
2026-05-05 22:21 36.73139 -79.58577 18691 ft 399 kts 125°
2026-05-05 22:21 36.71660 -79.55659 18272 ft 396 kts 125°
2026-05-05 22:22 36.70187 -79.52757 17766 ft 395 kts 125°
2026-05-05 22:22 36.68723 -79.49875 17310 ft 392 kts 125°
2026-05-05 22:22 36.67270 -79.47016 16880 ft 389 kts 125°
2026-05-05 22:22 36.65844 -79.44213 16438 ft 386 kts 125°
2026-05-05 22:23 36.64410 -79.41396 16017 ft 383 kts 125°
2026-05-05 22:23 36.62982 -79.38595 15617 ft 381 kts 125°
2026-05-05 22:23 36.61562 -79.35812 15199 ft 379 kts 125°
2026-05-05 22:23 36.60153 -79.33052 14788 ft 377 kts 125°
2026-05-05 22:24 36.58749 -79.30305 14374 ft 375 kts 125°
2026-05-05 22:24 36.57352 -79.27572 13948 ft 374 kts 125°
2026-05-05 22:24 36.55957 -79.24848 13496 ft 373 kts 125°
2026-05-05 22:24 36.54585 -79.22168 13062 ft 370 kts 125°
2026-05-05 22:25 36.53206 -79.19478 12626 ft 368 kts 125°
2026-05-05 22:25 36.51834 -79.16801 12212 ft 366 kts 125°
2026-05-05 22:25 36.50468 -79.14140 11806 ft 363 kts 125°
2026-05-05 22:25 36.49109 -79.11496 11388 ft 361 kts 125°
2026-05-05 22:26 36.47765 -79.08881 11004 ft 359 kts 126°
2026-05-05 22:26 36.46420 -79.06267 10578 ft 357 kts 126°
2026-05-05 22:26 36.45097 -79.03696 10403 ft 348 kts 126°
2026-05-05 22:26 36.43808 -79.01190 10223 ft 340 kts 126°
2026-05-05 22:27 36.42974 -78.99572 10133 ft 334 kts 126°
2026-05-05 22:27 36.41739 -78.97177 9974 ft 325 kts 126°
2026-05-05 22:27 36.40542 -78.94859 9952 ft 312 kts 126°
2026-05-05 22:27 36.39288 -78.92621 9376 ft 316 kts 134°
2026-05-05 22:28 36.37800 -78.90653 9032 ft 312 kts 139°
2026-05-05 22:28 36.36269 -78.88794 8797 ft 301 kts 140°
2026-05-05 22:28 36.34799 -78.86995 8673 ft 292 kts 139°
2026-05-05 22:28 36.33394 -78.85238 8515 ft 281 kts 139°
2026-05-05 22:29 36.32072 -78.83565 8397 ft 269 kts 139°
2026-05-05 22:29 36.30795 -78.81941 8289 ft 257 kts 139°
2026-05-05 22:29 36.29565 -78.80388 8175 ft 247 kts 139°
2026-05-05 22:29 36.28375 -78.78897 8000 ft 242 kts 139°
2026-05-05 22:30 36.27191 -78.77413 7766 ft 242 kts 139°
2026-05-05 22:30 36.26007 -78.75914 7531 ft 244 kts 139°
2026-05-05 22:30 36.24817 -78.74403 7280 ft 244 kts 139°
2026-05-05 22:30 36.23640 -78.72910 7022 ft 244 kts 139°
2026-05-05 22:31 36.22448 -78.71400 6756 ft 245 kts 139°
2026-05-05 22:31 36.21252 -78.69884 6501 ft 246 kts 139°
2026-05-05 22:31 36.20052 -78.68365 6221 ft 247 kts 139°
2026-05-05 22:31 36.18833 -78.66843 5908 ft 248 kts 142°
2026-05-05 22:32 36.17508 -78.65462 5587 ft 249 kts 145°
2026-05-05 22:32 36.16142 -78.64128 5266 ft 251 kts 145°
2026-05-05 22:32 36.14764 -78.62777 4933 ft 255 kts 145°
2026-05-05 22:32 36.13370 -78.61400 4582 ft 259 kts 145°
2026-05-05 22:33 36.11965 -78.60043 4251 ft 260 kts 151°
2026-05-05 22:33 36.10297 -78.59339 4042 ft 248 kts 176°
2026-05-05 22:33 36.08625 -78.59451 3999 ft 236 kts 193°
2026-05-05 22:33 36.07075 -78.59914 4023 ft 224 kts 196°
2026-05-05 22:34 36.05607 -78.60388 4002 ft 213 kts 195°
2026-05-05 22:34 36.04180 -78.60839 4002 ft 211 kts 195°
2026-05-05 22:34 36.02751 -78.61284 3981 ft 212 kts 195°
2026-05-05 22:34 36.01374 -78.61797 3972 ft 204 kts 209°
2026-05-05 22:35 36.00248 -78.62861 3778 ft 205 kts 219°
2026-05-05 22:35 35.99187 -78.64013 3511 ft 205 kts 223°
2026-05-05 22:35 35.98176 -78.65224 3261 ft 199 kts 223°
2026-05-05 22:35 35.97207 -78.66417 3006 ft 195 kts 223°
2026-05-05 22:36 35.96264 -78.67590 2747 ft 190 kts 223°
2026-05-05 22:36 35.95336 -78.68724 2497 ft 184 kts 221°
2026-05-05 22:36 35.94444 -78.69837 2252 ft 181 kts 224°
2026-05-05 22:36 35.93573 -78.70928 2018 ft 177 kts 222°
2026-05-05 22:37 35.92717 -78.71990 1797 ft 172 kts 222°
2026-05-05 22:37 35.91889 -78.73014 1574 ft 164 kts 222°
2026-05-05 22:37 35.91094 -78.73998 1387 ft 156 kts 225°
2026-05-05 22:37 35.90359 -78.74910 1189 ft 145 kts 222°
2026-05-05 22:38 35.89654 -78.75787 962 ft 139 kts 219°
2026-05-05 22:38 35.88995 -78.76610 786 ft 136 kts 221°
2026-05-05 22:38 35.88283 -78.77487 630 ft 150 kts 220°
2026-05-05 22:38 35.87570 -78.78375 644 ft 149 kts 221°
2026-05-05 22:39 35.86832 -78.79296 1344 ft 151 kts 222°
2026-05-05 22:39 35.86064 -78.80245 1918 ft 165 kts 225°
2026-05-05 22:39 35.85190 -78.81345 2355 ft 190 kts 224°
2026-05-05 22:39 35.84206 -78.82593 2639 ft 216 kts 224°
2026-05-05 22:40 35.83122 -78.83940 3093 ft 225 kts 219°
2026-05-05 22:40 35.81706 -78.84768 3546 ft 231 kts 188°
2026-05-05 22:40 35.80141 -78.84545 3918 ft 233 kts 160°
2026-05-05 22:40 35.78826 -78.83356 3980 ft 238 kts 135°
2026-05-05 22:41 35.77782 -78.81757 3993 ft 241 kts 131°
2026-05-05 22:41 35.76756 -78.80094 4017 ft 245 kts 131°
2026-05-05 22:41 35.75903 -78.78259 3985 ft 251 kts 108°
2026-05-05 22:41 35.75862 -78.76107 3984 ft 257 kts 77°
2026-05-05 22:42 35.76693 -78.74189 4017 ft 258 kts 48°
2026-05-05 22:42 35.78010 -78.72678 3981 ft 260 kts 41°
2026-05-05 22:42 35.79399 -78.71224 4014 ft 265 kts 40°
2026-05-05 22:42 35.80788 -78.69773 3991 ft 266 kts 41°
2026-05-05 22:43 35.82210 -78.68290 3805 ft 269 kts 41°
2026-05-05 22:43 35.83635 -78.66795 3558 ft 267 kts 41°
2026-05-05 22:43 35.85049 -78.65315 3304 ft 266 kts 40°
2026-05-05 22:43 35.86461 -78.63849 3087 ft 263 kts 40°
2026-05-05 22:44 35.87853 -78.62402 3019 ft 261 kts 40°
2026-05-05 22:44 35.89249 -78.60957 3003 ft 261 kts 40°
2026-05-05 22:44 35.90636 -78.59521 2996 ft 260 kts 41°
2026-05-05 22:44 35.92028 -78.58091 2992 ft 260 kts 40°
2026-05-05 22:45 35.93474 -78.56810 2977 ft 260 kts 22°
2026-05-05 22:45 35.95220 -78.56432 3015 ft 257 kts 353°
2026-05-05 22:45 35.96917 -78.57115 2788 ft 258 kts 322°
2026-05-05 22:45 35.98230 -78.58550 2618 ft 248 kts 304°
2026-05-05 22:46 35.98912 -78.60426 2403 ft 237 kts 274°
2026-05-05 22:46 35.98760 -78.62390 2275 ft 225 kts 253°
2026-05-05 22:46 35.98348 -78.64199 2226 ft 211 kts 246°
2026-05-05 22:46 35.97595 -78.65643 2206 ft 191 kts 230°
2026-05-05 22:47 35.96782 -78.66872 2180 ft 181 kts 226°
2026-05-05 22:47 35.95932 -78.67999 2197 ft 178 kts 224°
2026-05-05 22:47 35.95060 -78.69071 2201 ft 178 kts 223°
2026-05-05 22:47 35.94201 -78.70147 2166 ft 175 kts 224°
2026-05-05 22:48 35.93344 -78.71211 1962 ft 173 kts 223°
2026-05-05 22:48 35.92519 -78.72234 1741 ft 161 kts 223°
2026-05-05 22:48 35.91767 -78.73165 1579 ft 146 kts 223°
2026-05-05 22:48 35.91053 -78.74049 1345 ft 142 kts 224°
2026-05-05 22:49 35.90378 -78.74888 1155 ft 140 kts 223°
2026-05-05 22:49 35.89690 -78.75740 916 ft 139 kts 221°
2026-05-05 22:49 35.89015 -78.76590 793 ft 139 kts 220°
2026-05-05 22:49 35.88319 -78.77442 596 ft 144 kts 220°
2026-05-05 22:50 35.87619 -78.78319 433 ft 137 kts 218°
2026-05-05 22:50 35.87034 -78.79030 430 ft 89 kts 225°
2026-05-05 22:50 35.86730 -78.79407 425 ft 50 kts 225°
2026-05-05 22:50 35.86537 -78.79648 430 ft 21 kts 226°
2026-05-05 22:51 35.86512 -78.79775 431 ft 16 kts 310°
2026-05-05 22:51 35.86603 -78.79755 436 ft 15 kts 43°
2026-05-05 22:51 35.86677 -78.79662 426 ft 17 kts 45°
2026-05-05 22:51 35.86772 -78.79545 431 ft 21 kts 44°
2026-05-05 22:52 35.86877 -78.79416 430 ft 21 kts 45°
2026-05-05 22:52 35.86978 -78.79290 423 ft 20 kts 45°
2026-05-05 22:52 35.87077 -78.79169 424 ft 20 kts 45°
2026-05-05 22:52 35.87172 -78.79095 424 ft 13 kts 13°
2026-05-05 22:53 35.87243 -78.79086 427 ft 9 kts
2026-05-05 22:53 35.87284 -78.79082 432 ft 2 kts
2026-05-05 22:53 35.87295 -78.79081 432 ft 1 kts